Date String (YYYY-MM-DD hh:mm:ss) UTC,Instrument flags,Ambient pressure (hPa),Sample flow (lpm),Bypass flow (lpm),Sample temperature (°C),Ambient temperature (°C),ASC tube jacket temperature (°C),LED temperature (°C),Box temperature (°C),Sample RH (%),Span deviation,Mass concentration (μg/m³),Mass concentration (μg/m³),Mass concentration (μg/m³)
DateTimeUTC,F1_M11,P_M11,Q1_M11,Q2_M11,T1_M11,T2_M11,T3_M11,T4_M11,T5_M11,U1_M11,ZSPAN_M11,X0_M11,X2_M11,X1_M11
2022-09-11 10:00:00,,0834.0,4.99,0.00,27.2,25.3,00.0,36.0,28.9,24.2,0000.0,0006.99,0005.11,0004.95
2022-09-11 10:01:00,,0834.0,5.00,0.00,27.2,25.2,00.0,36.0,28.9,24.2,0000.0,0007.30,0005.14,0004.97
2022-09-11 10:02:00,,0834.0,5.00,0.00,27.1,25.3,00.0,36.0,28.9,24.3,0000.0,0007.36,0005.14,0004.97
2022-09-11 10:03:00,,0834.0,5.01,0.00,27.1,25.3,00.0,36.0,28.9,24.3,0000.0,0007.36,0005.15,0004.98
2022-09-11 10:04:00,,0834.0,4.98,0.00,27.1,25.4,00.0,36.0,28.9,24.2,0000.0,0007.41,0005.16,0005.00
2022-09-11 10:05:00,,0833.9,5.01,0.00,27.1,25.4,00.0,36.0,29.0,24.2,0000.0,0007.42,0005.18,0005.02
2022-09-11 10:06:00,,0833.9,5.01,0.00,27.1,25.4,00.0,35.9,28.9,24.2,0000.0,0007.41,0005.19,0005.04
2022-09-11 10:07:00,,0834.0,4.99,0.00,27.1,25.4,00.0,35.9,28.9,24.2,0000.0,0007.37,0005.18,0005.06
2022-09-11 10:08:00,,0833.9,5.01,0.00,27.1,25.5,00.0,35.9,28.9,24.2,0000.0,0007.48,0005.21,0005.08
2022-09-11 10:09:00,,0833.9,5.01,0.00,27.1,25.4,00.0,35.9,29.0,24.2,-000.1,0007.55,0005.25,0005.12
2022-09-11 10:10:00,,0833.9,4.98,0.00,27.1,25.5,00.0,35.9,29.0,24.2,-000.0,0007.56,0005.27,0005.14
2022-09-11 10:11:00,,0833.9,5.01,0.00,27.1,25.5,00.0,35.9,29.0,24.2,0000.4,0007.59,0005.30,0005.17
2022-09-11 10:12:00,,0833.8,4.99,0.00,27.1,25.5,00.0,35.9,29.0,24.2,0000.1,0007.50,0005.31,0005.19
2022-09-11 10:13:00,,0833.9,5.01,0.00,27.1,25.5,00.0,35.9,29.0,24.2,0000.2,0007.43,0005.32,0005.22
2022-09-11 10:14:00,,0833.9,4.99,0.00,27.1,25.4,00.0,35.9,28.9,24.3,0000.9,0007.49,0005.36,0005.25
2022-09-11 10:15:00,,0833.9,5.00,0.00,27.1,25.4,00.0,35.9,28.9,24.3,0001.3,0007.51,0005.40,0005.27
2022-09-11 10:16:00,,0834.0,5.00,0.00,27.1,25.4,00.0,35.9,28.9,24.3,0001.3,0007.51,0005.41,0005.27
2022-09-11 10:17:00,,0834.0,5.00,0.00,27.1,25.4,00.0,35.9,28.9,24.4,0001.0,0007.52,0005.41,0005.27
2022-09-11 10:18:00,,0834.0,5.00,0.00,27.1,25.3,00.0,35.8,28.9,24.4,0001.1,0007.51,0005.40,0005.26
2022-09-11 10:19:00,,0834.0,5.01,0.00,27.1,25.3,00.0,35.9,28.9,24.4,0000.5,0007.42,0005.38,0005.25
2022-09-11 10:20:00,,0834.0,5.00,0.00,27.0,25.2,00.0,35.8,28.8,24.5,0000.1,0007.46,0005.38,0005.24
2022-09-11 10:21:00,,0834.0,4.99,0.00,27.0,25.2,00.0,35.8,28.8,24.5,-000.4,0007.46,0005.38,0005.24
2022-09-11 10:22:00,,0834.0,5.00,0.00,27.0,25.1,00.0,35.8,28.7,24.5,-000.6,0007.46,0005.37,0005.22
2022-09-11 10:23:00,,0834.0,5.00,0.00,26.9,25.0,00.0,35.8,28.7,24.5,-000.3,0007.43,0005.34,0005.18
2022-09-11 10:24:00,,0834.0,5.00,0.00,26.9,25.0,00.0,35.8,28.6,24.6,-000.9,0007.45,0005.34,0005.18
2022-09-11 10:25:00,,0834.0,5.00,0.00,26.9,25.0,00.0,35.8,28.6,25.1,0000.0,0007.50,0005.32,0005.15
2022-09-11 10:26:00,,0834.0,4.99,0.00,26.8,24.9,00.0,35.8,28.6,26.5,0000.0,0007.49,0005.27,0005.12
2022-09-11 10:27:00,,0834.0,5.00,0.00,26.8,24.8,00.0,35.7,28.5,25.6,0000.0,0007.51,0005.26,0005.11
2022-09-11 10:28:00,,0834.0,5.00,0.00,26.8,24.8,00.0,35.7,28.6,25.1,0000.0,0007.55,0005.27,0005.11
2022-09-11 10:29:00,,0834.0,5.01,0.00,26.8,24.9,00.0,35.7,28.5,25.0,0000.0,0007.60,0005.29,0005.11
2022-09-11 10:30:00,,0834.0,4.98,0.00,26.7,24.8,00.0,35.7,28.5,25.0,-000.5,0007.74,0005.34,0005.13
2022-09-11 10:31:00,,0834.0,5.00,0.00,26.7,24.9,00.0,35.6,28.5,25.0,0000.0,0007.68,0005.33,0005.14
2022-09-11 10:32:00,,0834.0,5.01,0.00,26.7,24.9,00.0,35.6,28.5,25.0,0000.0,0007.87,0005.34,0005.15
2022-09-11 10:33:00,,0834.0,4.99,0.00,26.7,25.1,00.0,35.6,28.6,25.0,-000.1,0007.88,0005.35,0005.16
2022-09-11 10:34:00,,0834.0,5.01,0.00,26.8,25.1,00.0,35.6,28.6,24.9,-000.1,0007.93,0005.39,0005.20
2022-09-11 10:35:00,,0834.0,4.99,0.00,26.8,25.1,00.0,35.6,28.6,24.7,0000.5,0008.02,0005.46,0005.25
2022-09-11 10:36:00,,0834.0,5.01,0.00,26.8,25.2,00.0,35.6,28.6,24.8,0001.0,0008.02,0005.49,0005.27
2022-09-11 10:37:00,,0834.0,4.99,0.00,26.8,25.1,00.0,35.6,28.6,24.7,0001.3,0008.16,0005.56,0005.32
2022-09-11 10:38:00,,0834.0,5.01,0.00,26.8,25.1,00.0,35.6,28.6,24.5,0001.6,0008.59,0005.61,0005.36
2022-09-11 10:39:00,,0834.0,5.01,0.00,26.8,25.1,00.0,35.6,28.6,24.4,0000.5,0008.66,0005.64,0005.40
2022-09-11 10:40:00,,0834.0,4.99,0.00,26.8,25.1,00.0,35.6,28.6,24.3,0000.8,0008.69,0005.69,0005.45
2022-09-11 10:41:00,,0834.0,5.01,0.00,26.7,24.9,00.0,35.5,28.5,24.3,0000.4,0008.66,0005.73,0005.50
2022-09-11 10:42:00,,0834.0,4.99,0.00,26.7,24.9,00.0,35.5,28.5,24.4,0000.8,0008.71,0005.79,0005.55
2022-09-11 10:43:00,,0834.0,5.02,0.00,26.7,25.0,00.0,35.5,28.5,24.4,0000.7,0008.58,0005.82,0005.59
2022-09-11 10:44:00,,0834.0,4.99,0.00,26.7,25.0,00.0,35.5,28.5,24.4,0001.2,0008.69,0005.86,0005.62
2022-09-11 10:45:00,,0834.0,5.00,0.00,26.7,25.0,00.0,35.5,28.5,24.4,0001.4,0008.88,0005.88,0005.64
2022-09-11 10:46:00,,0834.0,5.01,0.00,26.7,25.0,00.0,35.5,28.5,24.5,0001.4,0008.88,0005.85,0005.64
2022-09-11 10:47:00,,0834.0,4.99,0.00,26.7,25.0,00.0,35.5,28.5,24.5,0001.3,0008.88,0005.88,0005.66
2022-09-11 10:48:00,,0834.0,5.01,0.00,26.7,25.0,00.0,35.5,28.5,24.5,0001.2,0008.73,0005.86,0005.66
2022-09-11 10:49:00,,0834.0,4.98,0.00,26.7,25.0,00.0,35.5,28.5,24.6,0000.8,0008.27,0005.83,0005.64
2022-09-11 10:50:00,,0833.9,5.01,0.00,26.7,25.0,00.0,35.5,28.5,24.6,0001.3,0008.23,0005.82,0005.63
2022-09-11 10:51:00,,0833.9,4.99,0.00,26.7,25.0,00.0,35.5,28.5,24.6,0001.1,0008.25,0005.80,0005.62
2022-09-11 10:52:00,,0833.9,5.01,0.00,26.6,24.9,00.0,35.5,28.5,24.7,0001.1,0008.24,0005.78,0005.59
2022-09-11 10:53:00,,0834.0,5.00,0.00,26.6,24.9,00.0,35.5,28.5,24.8,0001.6,0008.23,0005.75,0005.55
2022-09-11 10:54:00,,0834.0,4.99,0.00,26.6,25.0,00.0,35.5,28.5,24.8,0001.8,0008.23,0005.74,0005.53
2022-09-11 10:55:00,,0833.9,5.01,0.00,26.6,25.0,00.0,35.5,28.5,24.8,0002.1,0008.14,0005.71,0005.52
2022-09-11 10:56:00,,0833.9,5.00,0.00,26.6,25.0,00.0,35.4,28.5,24.7,0001.9,0007.97,0005.71,0005.52
2022-09-11 10:57:00,,0833.9,5.01,0.00,26.6,25.0,00.0,35.4,28.5,24.7,0001.8,0007.86,0005.70,0005.51
2022-09-11 10:58:00,,0834.0,4.99,0.00,26.6,25.0,00.0,35.4,28.5,24.6,0001.8,0007.91,0005.70,0005.50
2022-09-11 10:59:00,,0833.9,5.01,0.00,26.6,25.0,00.0,35.4,28.5,24.6,0001.7,0007.93,0005.71,0005.49
